When you browse on this site, cookies collect data to enhance your experience and personalize the content and advertising you see.
Visit our Privacy Policy to learn more. By continuing to use the site, you agree to this use of cookies and data.
  • In Hungary
  • List of Countries
  • For 7 days
  • Water Temperature
  • Weather Map
  • News
  • Weather Widgets
  • user-avatar
    Login

    Hourly Weather Valdivia

    Today, 12 December, Thursday

    Time Temperature Precipitation Wind Pressure Humidity
    00:00 +22°C° 0.1 mm 0 mps 725 mmHg 98%
    01:00 +24°C° 0 mm 1 mps 725 mmHg 97%
    02:00 +24°C° 0.3 mm 1 mps 725 mmHg 97%
    03:00 +24°C° 0.3 mm 1 mps 725 mmHg 97%
    04:00 +24°C° 0.3 mm 1 mps 725 mmHg 97%
    05:00 +24°C° 0 mm 1 mps 725 mmHg 96%
    06:00 +24°C° 0 mm 1 mps 725 mmHg 96%
    07:00 +24°C° 0 mm 1 mps 726 mmHg 96%
    08:00 +26°C° 0 mm 1 mps 726 mmHg 85%
    09:00 +29°C° 0 mm 1 mps 727 mmHg 75%
    10:00 +31°C° 0 mm 1 mps 727 mmHg 65%
    11:00 +31°C° 0.8 mm 1 mps 726 mmHg 71%
    12:00 +30°C° 0.8 mm 1 mps 725 mmHg 76%
    13:00 +30°C° 0.8 mm 1 mps 724 mmHg 82%
    14:00 +29°C° 1 mm 1 mps 723 mmHg 86%
    15:00 +29°C° 1 mm 1 mps 723 mmHg 89%
    16:00 +28°C° 1 mm 1 mps 723 mmHg 93%
    17:00 +25°C° 0.3 mm 0 mps 723 mmHg 95%
    18:00 +24°C° 0.3 mm 0 mps 723 mmHg 97%
    19:00 +23°C° 0.3 mm 0 mps 724 mmHg 98%
    20:00 +23°C° 0.1 mm 0 mps 724 mmHg 98%
    21:00 +22°C° 0.1 mm 0 mps 725 mmHg 98%
    22:00 +22°C° 0.1 mm 0 mps 726 mmHg 98%
    23:00 +22°C° 0.1 mm 0 mps 725 mmHg 98%

    Tomorrow, 13 December, Friday

    Time Temperature Precipitation Wind Pressure Humidity
    00:00 +24°C° 0.1 mm 1 mps 725 mmHg 98%
    01:00 +24°C° 0.1 mm 1 mps 725 mmHg 97%
    02:00 +23°C° 0 mm 1 mps 724 mmHg 97%
    03:00 +23°C° 0 mm 1 mps 724 mmHg 97%
    04:00 +23°C° 0 mm 1 mps 724 mmHg 97%
    05:00 +23°C° 0 mm 1 mps 724 mmHg 96%
    06:00 +23°C° 0 mm 1 mps 725 mmHg 96%
    07:00 +23°C° 0 mm 1 mps 725 mmHg 95%
    08:00 +26°C° 0 mm 1 mps 725 mmHg 84%
    09:00 +29°C° 0 mm 1 mps 726 mmHg 73%
    10:00 +31°C° 0 mm 1 mps 726 mmHg 62%
    11:00 +31°C° 0.2 mm 1 mps 725 mmHg 64%
    12:00 +31°C° 0.2 mm 1 mps 724 mmHg 67%
    13:00 +31°C° 0.2 mm 2 mps 724 mmHg 70%
    14:00 +30°C° 1 mm 1 mps 723 mmHg 77%
    15:00 +29°C° 1 mm 1 mps 723 mmHg 84%
    16:00 +28°C° 1 mm 1 mps 722 mmHg 91%
    17:00 +25°C° 0.5 mm 0 mps 723 mmHg 94%
    18:00 +24°C° 0.5 mm 0 mps 723 mmHg 96%
    19:00 +23°C° 0.5 mm 0 mps 724 mmHg 98%
    20:00 +23°C° 0.2 mm 0 mps 724 mmHg 98%
    21:00 +23°C° 0.2 mm 0 mps 725 mmHg 98%
    22:00 +23°C° 0.2 mm 0 mps 725 mmHg 98%
    23:00 +23°C° 0.3 mm 0 mps 725 mmHg 98%

    Day after tomorrow, 14 December, Saturday

    Time Temperature Precipitation Wind Pressure Humidity
    00:00 +22°C° 0.3 mm 0 mps 725 mmHg 98%
    01:00 +22°C° 0.3 mm 0 mps 725 mmHg 98%
    02:00 +22°C° 0.1 mm 0 mps 725 mmHg 98%
    03:00 +22°C° 0.1 mm 0 mps 725 mmHg 98%
    04:00 +22°C° 0.1 mm 0 mps 725 mmHg 98%
    05:00 +22°C° 0.1 mm 0 mps 725 mmHg 98%
    06:00 +22°C° 0.1 mm 0 mps 725 mmHg 97%
    07:00 +22°C° 0.1 mm 0 mps 726 mmHg 97%
    08:00 +24°C° 0.2 mm 0 mps 726 mmHg 92%
    09:00 +25°C° 0.2 mm 0 mps 727 mmHg 88%
    10:00 +26°C° 0.2 mm 0 mps 727 mmHg 83%
    11:00 +27°C° 0.3 mm 0 mps 726 mmHg 81%
    12:00 +27°C° 0.3 mm 0 mps 725 mmHg 79%
    13:00 +28°C° 0.3 mm 0 mps 724 mmHg 77%
    14:00 +29°C° 0.8 mm 1 mps 724 mmHg 81%
    15:00 +29°C° 0.8 mm 1 mps 723 mmHg 85%
    16:00 +28°C° 0.8 mm 1 mps 723 mmHg 89%
    17:00 +25°C° 0.4 mm 0 mps 723 mmHg 92%
    18:00 +24°C° 0.4 mm 0 mps 724 mmHg 95%
    19:00 +23°C° 0.4 mm 0 mps 724 mmHg 98%
    20:00 +23°C° 0.6 mm 0 mps 725 mmHg 98%
    21:00 +23°C° 0.6 mm 0 mps 726 mmHg 98%
    22:00 +23°C° 0.6 mm 0 mps 726 mmHg 97%
    23:00 +23°C° 0.3 mm 0 mps 726 mmHg 97%

    15 December, Sunday

    Time Temperature Precipitation Wind Pressure Humidity
    00:00 +22°C° 0.3 mm 0 mps 726 mmHg 97%
    01:00 +22°C° 0.3 mm 0 mps 725 mmHg 97%
    02:00 +22°C° 0.2 mm 0 mps 725 mmHg 97%
    03:00 +22°C° 0.2 mm 0 mps 725 mmHg 97%
    04:00 +22°C° 0.2 mm 0 mps 725 mmHg 97%
    05:00 +22°C° 0 mm 0 mps 726 mmHg 97%
    06:00 +22°C° 0 mm 0 mps 726 mmHg 96%
    07:00 +22°C° 0 mm 0 mps 727 mmHg 96%
    08:00 +24°C° 0.2 mm 0 mps 727 mmHg 91%
    09:00 +27°C° 0.2 mm 1 mps 727 mmHg 85%
    10:00 +29°C° 0.2 mm 1 mps 727 mmHg 80%
    11:00 +29°C° 0.5 mm 1 mps 727 mmHg 79%
    12:00 +30°C° 0.5 mm 1 mps 726 mmHg 79%
    13:00 +30°C° 0.5 mm 1 mps 725 mmHg 78%
    14:00 +30°C° 0.6 mm 1 mps 724 mmHg 81%
    15:00 +29°C° 0.6 mm 1 mps 724 mmHg 84%
    16:00 +29°C° 0.6 mm 1 mps 723 mmHg 87%
    17:00 +27°C° 0.3 mm 1 mps 724 mmHg 91%
    18:00 +24°C° 0.3 mm 0 mps 724 mmHg 95%
    19:00 +23°C° 0.3 mm 0 mps 725 mmHg 99%
    20:00 +23°C° 0.2 mm 0 mps 725 mmHg 98%
    21:00 +22°C° 0.2 mm 0 mps 726 mmHg 98%
    22:00 +22°C° 0.2 mm 0 mps 726 mmHg 98%
    23:00 +24°C° 0 mm 1 mps 726 mmHg 98%

    16 December, Monday

    Time Temperature Precipitation Wind Pressure Humidity
    00:00 +24°C° 0 mm 1 mps 725 mmHg 98%
    01:00 +23°C° 0 mm 1 mps 725 mmHg 98%
    02:00 +23°C° 0 mm 1 mps 725 mmHg 97%
    03:00 +23°C° 0 mm 1 mps 725 mmHg 97%
    04:00 +23°C° 0 mm 1 mps 725 mmHg 97%
    05:00 +23°C° 0 mm 1 mps 725 mmHg 96%
    06:00 +23°C° 0 mm 1 mps 725 mmHg 95%
    07:00 +23°C° 0 mm 1 mps 726 mmHg 95%
    08:00 +26°C° 0 mm 1 mps 726 mmHg 84%
    09:00 +29°C° 0 mm 1 mps 727 mmHg 73%
    10:00 +31°C° 0 mm 1 mps 727 mmHg 62%
    11:00 +31°C° 0 mm 1 mps 726 mmHg 62%
    12:00 +32°C° 0 mm 1 mps 725 mmHg 62%
    13:00 +32°C° 0 mm 2 mps 724 mmHg 62%
    14:00 +31°C° 0.4 mm 2 mps 724 mmHg 70%
    15:00 +30°C° 0.4 mm 1 mps 723 mmHg 77%
    16:00 +29°C° 0.4 mm 1 mps 722 mmHg 85%
    17:00 +28°C° 0.4 mm 1 mps 723 mmHg 90%
    18:00 +25°C° 0.4 mm 0 mps 723 mmHg 94%
    19:00 +23°C° 0.4 mm 0 mps 724 mmHg 99%
    20:00 +23°C° 0.3 mm 0 mps 724 mmHg 99%
    21:00 +23°C° 0.3 mm 0 mps 724 mmHg 98%
    22:00 +23°C° 0.3 mm 0 mps 725 mmHg 98%
    23:00 +23°C° 0.1 mm 0 mps 725 mmHg 98%

    17 December, Tuesday

    Time Temperature Precipitation Wind Pressure Humidity
    00:00 +23°C° 0.1 mm 0 mps 724 mmHg 98%
    01:00 +24°C° 0.1 mm 1 mps 724 mmHg 98%
    02:00 +24°C° 0 mm 1 mps 724 mmHg 98%
    03:00 +24°C° 0 mm 1 mps 724 mmHg 97%
    04:00 +24°C° 0 mm 1 mps 724 mmHg 97%
    05:00 +24°C° 0 mm 1 mps 724 mmHg 97%
    06:00 +24°C° 0 mm 1 mps 724 mmHg 96%
    07:00 +24°C° 0 mm 1 mps 725 mmHg 96%
    08:00 +27°C° 0 mm 1 mps 725 mmHg 85%
    09:00 +29°C° 0 mm 1 mps 725 mmHg 74%
    10:00 +32°C° 0 mm 1 mps 725 mmHg 63%
    11:00 +31°C° 0.4 mm 1 mps 725 mmHg 67%
    12:00 +31°C° 0.4 mm 1 mps 724 mmHg 71%
    13:00 +31°C° 0.4 mm 1 mps 723 mmHg 75%
    14:00 +30°C° 1 mm 1 mps 722 mmHg 80%
    15:00 +29°C° 1 mm 1 mps 722 mmHg 85%
    16:00 +29°C° 1 mm 1 mps 721 mmHg 90%
    17:00 +28°C° 0.6 mm 1 mps 721 mmHg 93%
    18:00 +25°C° 0.6 mm 0 mps 722 mmHg 96%
    19:00 +24°C° 0.6 mm 0 mps 722 mmHg 98%
    20:00 +23°C° 0.4 mm 0 mps 723 mmHg 98%
    21:00 +23°C° 0.4 mm 0 mps 723 mmHg 98%
    22:00 +23°C° 0.4 mm 0 mps 724 mmHg 98%
    23:00 +23°C° 0.2 mm 0 mps 724 mmHg 98%
    Show more